Location: Nelson
(41.2830°S, 173.2830°E)
Time: 18:26:39
(UTC+12:00)

Cosmos 1553 Rocket - Pass Details

Date: 14 May 2021
Orbit: 942 x 1007 km, 82.9° (Epoch: 19 June)

Event Time Altitude Azimuth Distance (km) Brightness Sun altitude
Rises 18:43:39 0° 184° (S) 3,659 6.9 -16.0°
Reaches altitude 10° 18:46:13 10° 180° (S) 2,702 6.2 -16.4°
Maximum altitude 18:52:18 60° 100° (E) 1,085 3.9 -17.6°
Drops below altitude 10° 18:58:18 10° 20° (NNE) 2,663 6.2 -18.7°
Sets 19:00:49 0° 17° (NNE) 3,603 6.9 -19.1°
